#timestamp,LO_Frequency,Hit,StdDev 
1509372015.0,286046998.5,N
1509372015.9,286046998.5,N
1509372035.7,286046999.3,N
1509372055.6,286046997.0,N
1509372075.4,286046997.5,N
1509372095.2,286046996.9,N
1509372115.1,286046994.9,N
1509372116.0,286046994.9,N
1509372135.8,286047000.5,N
1509372155.6,286046999.4,N
1509372175.5,286046998.7,N
1509372195.3,286046998.3,N
1509372215.1,286046999.3,N
1509372235.9,286046997.2,N
1509372255.7,286046995.4,N
1509372275.5,286046995.8,N
1509372295.4,286046995.4,N
1509372315.2,286046996.8,N
1509372335.0,286046999.4,N
1509372336.0,286046999.4,N
1509372355.8,286046996.9,N
1509372375.6,286047000.9,N
1509372395.5,286047001.0,N
1509372415.3,286046997.2,N
1509372435.1,286046997.7,N
1509372455.9,286047000.7,N
1509372475.7,286047000.6,N
1509372495.5,286047001.1,N
1509372515.4,286046999.9,N
1509372535.2,286047000.9,N
1509372555.0,286047000.6,N
1509372555.9,286047000.6,N
1509372575.8,286047001.4,N
1509372595.6,286047002.1,N
1509372615.4,286046995.6,N
1509372635.3,286046999.2,N
1509372655.1,286046995.2,N
1509372656.0,286046995.2,N
1509372675.8,286046991.7,Y
1509372695.7,286046992.5,P
1509372715.5,286046996.2,N
1509372735.3,286046993.4,N
1509372755.2,286046997.2,N
1509372775.0,286046993.3,N
1509372775.9,286046993.3,N
1509372795.8,286046995.0,N
1509372815.6,286046996.5,N
1509372835.4,286046994.5,N
1509372855.3,286046993.3,Y
1509372875.1,286046995.7,P
1509372876.0,286046995.7,P
1509372895.8,286046995.5,P
1509372915.7,286046993.0,Y
1509372935.5,286047000.6,P
1509372955.3,286047004.0,N
1509372975.2,286047000.1,N
1509372995.0,286047003.2,N
1509372995.9,286047003.2,N
1509373015.8,286047004.6,N
1509373035.6,286047006.8,N
1509373055.4,286047004.8,N
1509373075.3,286047008.4,N
1509373095.1,286047009.3,N
1509373096.0,286047009.3,N
1509373115.8,286047012.8,Y
1509373135.7,286047010.6,P
1509373155.5,286047009.7,N
1509373175.3,286047011.6,P
1509373195.2,286047009.7,Y
1509373215.0,286047003.4,P
1509373215.9,286047003.4,N
1509373235.8,286047005.3,N
1509373255.6,286047006.5,N
1509373275.4,286047009.0,Y
1509373295.3,286047002.1,P
1509373315.1,286047004.5,N
1509373335.8,286047005.7,P
1509373355.7,286047007.2,Y
1509373375.5,286047002.6,P
1509373395.3,286047007.1,P
1509373415.2,286047010.0,P
1509373435.0,286047009.6,Y
1509373435.9,286047009.6,P
1509373455.8,286047003.5,N
1509373475.6,286047006.0,N
1509373495.4,286047004.4,N
1509373515.3,286047000.8,N
1509373535.1,286046998.7,N
1509373536.0,286046998.7,N
1509373555.8,286047000.6,N
1509373575.7,286046997.9,N
1509373595.5,286046997.6,N
1509373615.3,286046996.9,N
1509373635.2,286046992.8,N
1509373655.0,286046992.5,N
1509373655.9,286046992.5,N
1509373675.7,286046990.1,N
1509373695.6,286046996.4,N
1509373715.4,286046996.3,N
1509373735.2,286046994.1,N
1509373755.1,286046992.2,N
1509373756.0,286046992.2,N
1509373775.8,286046992.9,N
1509373795.7,286046992.7,N
1509373815.5,286046991.2,N
1509373835.3,286046993.4,N
1509373855.2,286046993.8,N
1509373875.9,286046996.0,N
1509373895.7,286046994.6,N
1509373915.6,286046995.0,N
1509373935.4,286046991.8,N
1509373955.2,286046991.5,N
1509373975.1,286046988.3,N
1509373976.0,286046988.3,N
1509373995.8,286046986.3,Y
1509374015.6,286046991.5,P
1509374035.5,286046988.7,P
1509374055.3,286046991.5,P
1509374075.2,286046990.5,Y
1509374095.9,286046999.5,P
1509374115.7,286046998.9,N
1509374135.6,286046994.9,N
1509374155.4,286046999.4,N
1509374175.2,286046999.6,N
1509374195.1,286046997.8,N
1509374196.0,286046997.8,N
1509374215.8,286046998.4,N
1509374235.6,286046996.6,N
1509374255.5,286046997.1,N
1509374275.3,286046995.5,N
1509374295.1,286046993.5,N
1509374315.9,286046996.4,N
1509374335.7,286046991.3,Y
1509374355.5,286046994.5,P
1509374375.4,286046995.4,P
1509374395.2,286046998.4,N
1509374415.0,286046999.7,N
1509374416.0,286046999.7,N
1509374435.8,286047001.7,N
1509374455.6,286047006.7,N
1509374475.5,286047006.7,N
1509374495.3,286047002.0,N
1509374515.1,286047003.7,N
1509374535.9,286047001.5,N
1509374555.7,286047002.7,N
1509374575.5,286047002.5,N
1509374595.4,286047003.5,N
1509374615.2,286047005.5,N
1509374635.0,286046999.8,N
1509374635.9,286046999.8,N
1509374655.8,286047001.0,N
1509374675.6,286047001.5,N
1509374695.4,286047007.6,N
1509374715.3,286047006.6,N
1509374735.1,286047007.0,N
1509374736.0,286047007.0,N
1509374755.8,286047004.0,N
1509374775.7,286047005.8,N
1509374795.5,286047006.5,N
1509374815.3,286047007.2,N
1509374835.2,286047005.3,N
1509374855.9,286047006.1,N
1509374875.7,286047007.7,N
1509374895.6,286047009.5,N
1509374915.4,286047007.1,N
1509374935.2,286047005.2,N
1509374955.1,286047007.4,N
1509374956.0,286047007.4,N
1509374975.8,286047004.0,N
1509374995.6,286047000.4,N
1509375015.5,286047001.1,N
1509375035.3,286047000.3,N
1509375055.1,286047001.6,N
1509375075.9,286047004.2,N
1509375095.7,286047002.1,N
1509375115.5,286047001.3,N
1509375135.4,286047002.2,N
1509375155.2,286047002.2,N
1509375175.0,286047003.5,N
1509375175.9,286047003.5,N
1509375195.8,286047005.8,N
1509375215.6,286046999.8,N
1509375235.4,286047004.1,N
1509375255.3,286047001.7,N
1509375275.1,286047001.4,N
1509375295.8,286047001.0,N
1509375315.7,286046998.9,N
1509375335.5,286046998.9,N
1509375355.4,286046999.8,N
1509375375.2,286047002.8,N
1509375395.0,286047000.4,N
1509375395.9,286047000.4,N
1509375415.8,286046998.8,N
1509375435.6,286046999.2,N
1509375455.4,286046997.0,N
1509375475.3,286046997.5,N
1509375495.1,286046999.2,N
1509375496.0,286046999.2,N
1509375515.8,286046997.3,N
1509375535.7,286046999.6,N
1509375555.5,286046996.5,N
1509375575.3,286046997.4,N
1509375595.2,286047002.8,N
